Location: *
(51.0333°S, 178.4667°E)
Time: 22:59:31
(UTC+00:00)

Cosmos 2227 Rocket - Pass Details

Date: 15 November 2019
Orbit: 838 x 846 km, 71.0° (Epoch: 09 December)

Event Time Altitude Azimuth Distance (km) Brightness Sun altitude
Rises 10:40:33 0° 287° (WNW) 3,408 5.4 -18.8°
Reaches altitude 10° 10:43:27 10° 273° (W) 2,479 4.8 -18.9°
Maximum altitude 10:48:03 24° 219° (SW) 1,686 4.5 -19.2°
Drops below altitude 10° 10:52:40 10° 165° (SSE) 2,494 5.5 -19.3°
Sets 10:55:37 0° 151° (SSE) 3,434 6.1 -19.5°
